RPC0316 RPLL-RPLB

Flight info

Callsign RPC0316
Flight time 0h 27m
Altitude 10000
Route SIRCA2R SIRCA DCT OLONG DCT SBA
Aircraft B38M/M-SDE1FGHILORVWXY/HB1

Departure

Time 2026-05-05 22:42
Airport Ninoy Aquino International Airport (RPLL)

Arrival

Time 2026-05-05 23:09
Airport Subic Bay International Airport / Naval Air Station Cubi Point (RPLB)
Time Latitude Longitude Altitude Speed Heading
2026-05-05 22:10 14.51270 121.01971 62 ft 0 kts 331°
2026-05-05 22:27 14.51261 121.01976 65 ft 4 kts 331°
2026-05-05 22:27 14.51239 121.01991 67 ft 4 kts 303°
2026-05-05 22:28 14.51236 121.02003 60 ft 0 kts 243°
2026-05-05 22:33 14.51235 121.02002 60 ft 1 kts 243°
2026-05-05 22:33 14.51227 121.01986 63 ft 4 kts 243°
2026-05-05 22:33 14.51220 121.01968 61 ft 1 kts 261°
2026-05-05 22:33 14.51222 121.01958 65 ft 2 kts 287°
2026-05-05 22:34 14.51226 121.01933 65 ft 3 kts 260°
2026-05-05 22:34 14.51201 121.01899 67 ft 6 kts 229°
2026-05-05 22:34 14.51187 121.01885 68 ft 1 kts 203°
2026-05-05 22:34 14.51174 121.01887 67 ft 3 kts 170°
2026-05-05 22:35 14.51153 121.01902 67 ft 5 kts 134°
2026-05-05 22:35 14.51120 121.01937 70 ft 6 kts 137°
2026-05-05 22:35 14.51096 121.01936 66 ft 7 kts 204°
2026-05-05 22:35 14.51055 121.01866 66 ft 15 kts 241°
2026-05-05 22:36 14.50999 121.01763 67 ft 18 kts 239°
2026-05-05 22:36 14.50936 121.01649 67 ft 19 kts 239°
2026-05-05 22:36 14.50870 121.01531 62 ft 19 kts 241°
2026-05-05 22:36 14.50804 121.01410 66 ft 20 kts 240°
2026-05-05 22:37 14.50740 121.01315 67 ft 9 kts 205°
2026-05-05 22:37 14.50723 121.01316 70 ft 0 kts 158°
2026-05-05 22:37 14.50715 121.01320 63 ft 1 kts 157°
2026-05-05 22:37 14.50694 121.01323 61 ft 7 kts 189°
2026-05-05 22:38 14.50641 121.01271 63 ft 16 kts 240°
2026-05-05 22:38 14.50557 121.01120 61 ft 30 kts 240°
2026-05-05 22:38 14.50456 121.00939 68 ft 29 kts 240°
2026-05-05 22:38 14.50359 121.00765 64 ft 28 kts 240°
2026-05-05 22:39 14.50264 121.00596 62 ft 27 kts 239°
2026-05-05 22:39 14.50173 121.00430 66 ft 26 kts 240°
2026-05-05 22:39 14.50084 121.00272 65 ft 25 kts 240°
2026-05-05 22:39 14.49999 121.00117 62 ft 25 kts 240°
2026-05-05 22:40 14.49922 120.99983 62 ft 11 kts 228°
2026-05-05 22:40 14.49859 120.99974 68 ft 8 kts 163°
2026-05-05 22:40 14.49815 121.00002 64 ft 8 kts 139°
2026-05-05 22:40 14.49806 121.00052 63 ft 7 kts 64°
2026-05-05 22:41 14.49835 121.00098 64 ft 9 kts 56°
2026-05-05 22:41 14.49866 121.00152 60 ft 9 kts 60°
2026-05-05 22:41 14.49927 121.00261 60 ft 46 kts 60°
2026-05-05 22:41 14.50247 121.00842 61 ft 137 kts 61°
2026-05-05 22:42 14.50834 121.01894 175 ft 193 kts 60°
2026-05-05 22:42 14.51588 121.03215 562 ft 226 kts 59°
2026-05-05 22:42 14.52379 121.04588 1350 ft 224 kts 60°
2026-05-05 22:42 14.53132 121.06009 2477 ft 220 kts 62°
2026-05-05 22:43 14.53829 121.07296 3936 ft 191 kts 62°
2026-05-05 22:43 14.54447 121.08403 5155 ft 172 kts 63°
2026-05-05 22:43 14.55050 121.09493 5798 ft 181 kts 63°
2026-05-05 22:43 14.55697 121.10664 6335 ft 196 kts 62°
2026-05-05 22:44 14.56404 121.11942 6825 ft 214 kts 61°
2026-05-05 22:44 14.57477 121.13071 7319 ft 236 kts 30°
2026-05-05 22:44 14.59139 121.13478 7805 ft 259 kts
2026-05-05 22:44 14.60976 121.13492 8360 ft 274 kts
2026-05-05 22:45 14.62908 121.13448 9119 ft 281 kts
2026-05-05 22:45 14.64887 121.13450 9804 ft 290 kts
2026-05-05 22:45 14.66899 121.13243 10020 ft 293 kts 342°
2026-05-05 22:45 14.68649 121.12171 10028 ft 296 kts 315°
2026-05-05 22:46 14.69771 121.10422 10043 ft 295 kts 289°
2026-05-05 22:46 14.70090 121.08338 10032 ft 295 kts 271°
2026-05-05 22:46 14.70089 121.06227 10030 ft 294 kts 268°
2026-05-05 22:46 14.70036 121.04113 10029 ft 294 kts 268°
2026-05-05 22:47 14.70007 121.02029 10027 ft 295 kts 269°
2026-05-05 22:47 14.69949 120.99917 10024 ft 294 kts 260°
2026-05-05 22:47 14.69372 120.97903 10025 ft 293 kts 249°
2026-05-05 22:47 14.68654 120.95942 10030 ft 293 kts 248°
2026-05-05 22:48 14.67922 120.93981 10026 ft 292 kts 248°
2026-05-05 22:48 14.67219 120.92019 10025 ft 292 kts 249°
2026-05-05 22:48 14.66520 120.90045 10023 ft 292 kts 249°
2026-05-05 22:48 14.65816 120.88079 10023 ft 292 kts 249°
2026-05-05 22:49 14.65119 120.86147 10021 ft 292 kts 249°
2026-05-05 22:49 14.64411 120.84178 10021 ft 292 kts 249°
2026-05-05 22:49 14.63706 120.82214 10023 ft 292 kts 249°
2026-05-05 22:49 14.63000 120.80254 10015 ft 292 kts 249°
2026-05-05 22:50 14.62293 120.78292 10017 ft 291 kts 248°
2026-05-05 22:50 14.61581 120.76328 10028 ft 301 kts 248°
2026-05-05 22:50 14.60823 120.74233 10012 ft 310 kts 249°
2026-05-05 22:50 14.60095 120.72191 10012 ft 296 kts 249°
2026-05-05 22:51 14.59385 120.70218 10008 ft 294 kts 249°
2026-05-05 22:51 14.58669 120.68242 10003 ft 292 kts 248°
2026-05-05 22:51 14.57970 120.66306 10003 ft 292 kts 249°
2026-05-05 22:51 14.57261 120.64342 10005 ft 292 kts 249°
2026-05-05 22:52 14.56552 120.62377 10008 ft 292 kts 248°
2026-05-05 22:52 14.55844 120.60417 10009 ft 292 kts 249°
2026-05-05 22:52 14.55136 120.58457 10009 ft 292 kts 248°
2026-05-05 22:52 14.54425 120.56490 10006 ft 292 kts 248°
2026-05-05 22:53 14.53717 120.54532 10005 ft 292 kts 248°
2026-05-05 22:53 14.53008 120.52570 10007 ft 292 kts 248°
2026-05-05 22:53 14.52298 120.50608 10009 ft 292 kts 248°
2026-05-05 22:53 14.51588 120.48645 10011 ft 291 kts 249°
2026-05-05 22:54 14.50888 120.46711 10011 ft 292 kts 249°
2026-05-05 22:54 14.50178 120.44751 10011 ft 292 kts 248°
2026-05-05 22:54 14.49467 120.42788 10013 ft 294 kts 248°
2026-05-05 22:54 14.48751 120.40810 9960 ft 295 kts 248°
2026-05-05 22:55 14.48034 120.38833 9920 ft 294 kts 248°
2026-05-05 22:55 14.47319 120.36858 9917 ft 295 kts 248°
2026-05-05 22:55 14.46665 120.34858 9919 ft 296 kts 259°
2026-05-05 22:55 14.46742 120.32743 9923 ft 297 kts 286°
2026-05-05 22:56 14.47604 120.30852 9737 ft 295 kts 302°
2026-05-05 22:56 14.48725 120.29080 9416 ft 295 kts 305°
2026-05-05 22:56 14.49882 120.27332 9102 ft 295 kts 304°
2026-05-05 22:56 14.50998 120.25564 8811 ft 293 kts 303°
2026-05-05 22:57 14.52094 120.23785 8504 ft 292 kts 303°
2026-05-05 22:57 14.53192 120.22026 8206 ft 291 kts 303°
2026-05-05 22:57 14.54290 120.20281 7925 ft 289 kts 303°
2026-05-05 22:57 14.55380 120.18546 7641 ft 287 kts 303°
2026-05-05 22:58 14.56462 120.16817 7341 ft 286 kts 303°
2026-05-05 22:58 14.57525 120.15119 7086 ft 284 kts 303°
2026-05-05 22:58 14.58592 120.13432 6939 ft 276 kts 307°
2026-05-05 22:58 14.59951 120.12117 6846 ft 264 kts 332°
2026-05-05 22:59 14.61643 120.11521 6755 ft 253 kts 356°
2026-05-05 22:59 14.63352 120.11655 6653 ft 243 kts 20°
2026-05-05 22:59 14.64825 120.12416 6509 ft 233 kts 41°
2026-05-05 22:59 14.66084 120.13452 6350 ft 230 kts 41°
2026-05-05 23:00 14.68537 120.15500 5967 ft 227 kts 42°
2026-05-05 23:00 14.69761 120.16517 5790 ft 225 kts 40°
2026-05-05 23:00 14.70987 120.17510 5605 ft 224 kts 34°
2026-05-05 23:01 14.72477 120.17909 5457 ft 228 kts 353°
2026-05-05 23:01 14.73867 120.17180 5335 ft 229 kts 310°
2026-05-05 23:01 14.74441 120.15695 5218 ft 224 kts 267°
2026-05-05 23:01 14.73931 120.14245 5056 ft 214 kts 223°
2026-05-05 23:02 14.72864 120.13194 4933 ft 210 kts 221°
2026-05-05 23:02 14.71907 120.12058 4768 ft 211 kts 234°
2026-05-05 23:02 14.71229 120.10770 4607 ft 204 kts 243°
2026-05-05 23:02 14.70632 120.09436 4284 ft 206 kts 243°
2026-05-05 23:03 14.70063 120.08108 4023 ft 196 kts 252°
2026-05-05 23:03 14.70165 120.06811 4003 ft 182 kts 299°
2026-05-05 23:03 14.71088 120.05969 4010 ft 177 kts 344°
2026-05-05 23:03 14.72267 120.05985 4007 ft 170 kts 25°
2026-05-05 23:04 14.73122 120.06750 4002 ft 164 kts 64°
2026-05-05 23:04 14.73335 120.07884 3805 ft 167 kts 101°
2026-05-05 23:04 14.72991 120.08978 3584 ft 160 kts 108°
2026-05-05 23:04 14.72637 120.10067 3379 ft 160 kts 108°
2026-05-05 23:05 14.72287 120.11151 3155 ft 158 kts 108°
2026-05-05 23:05 14.72178 120.12246 2951 ft 155 kts 77°
2026-05-05 23:05 14.72617 120.13258 2742 ft 151 kts 63°
2026-05-05 23:05 14.73094 120.14174 2552 ft 143 kts 63°
2026-05-05 23:06 14.73564 120.15091 2414 ft 140 kts 63°
2026-05-05 23:06 14.74006 120.15955 2321 ft 138 kts 63°
2026-05-05 23:06 14.74448 120.16820 2126 ft 133 kts 65°
2026-05-05 23:06 14.74896 120.17702 1952 ft 141 kts 64°
2026-05-05 23:07 14.75337 120.18558 1739 ft 133 kts 63°
2026-05-05 23:07 14.75775 120.19420 1560 ft 139 kts 65°
2026-05-05 23:07 14.76212 120.20265 1335 ft 135 kts 62°
2026-05-05 23:07 14.76685 120.21090 1163 ft 130 kts 61°
2026-05-05 23:08 14.77145 120.21890 1105 ft 132 kts 60°
2026-05-05 23:08 14.77604 120.22730 1028 ft 140 kts 62°
2026-05-05 23:08 14.78001 120.23597 727 ft 127 kts 67°
2026-05-05 23:08 14.78350 120.24407 296 ft 119 kts 68°
2026-05-05 23:09 14.78665 120.25186 247 ft 118 kts 69°
2026-05-05 23:09 14.78981 120.25979 63 ft 120 kts 70°
2026-05-05 23:09 14.79266 120.26709 33 ft 89 kts 67°
2026-05-05 23:09 14.79448 120.27149 32 ft 47 kts 67°
2026-05-05 23:10 14.79542 120.27388 34 ft 27 kts 68°
2026-05-05 23:10 14.79593 120.27514 34 ft 11 kts 79°
2026-05-05 23:10 14.79592 120.27530 34 ft 0 kts 104°
2026-05-05 23:10 14.79583 120.27556 34 ft 3 kts 125°
2026-05-05 23:11 14.79568 120.27570 34 ft 8 kts 145°
2026-05-05 23:11 14.79514 120.27598 33 ft 6 kts 168°
2026-05-05 23:11 14.79471 120.27577 33 ft 6 kts 234°
2026-05-05 23:11 14.79454 120.27531 33 ft 11 kts 251°
2026-05-05 23:12 14.79426 120.27454 32 ft 23 kts 249°